Regional Weather Roundup
Issued by NWS

Home | Current Version | Previous Version | Graphics & Text | Print | Product List | Glossary On
Versions: 1 2 3 4 5 6 7 8 9 10 11 12 13 14 15 16 17 18 19 20 21 22 23 24 25 26 27 28 29 30 31 32 33 34 35 36 37 38 39 40 41 42 43 44 45 46 47 48 49 50
000
ASUS43 KIND 272109
RWRIN

WEATHER ROUNDUP FOR INDIANA
NATIONAL WEATHER SERVICE INDIANAPOLIS IN
500 PM EDT TUE JUN 27 2017

NOTE: "FAIR" INDICATES FEW OR NO CLOUDS BELOW 12,000 FEET WITH NO
SIGNIFICANT WEATHER AND/OR OBSTRUCTIONS TO VISIBILITY.

* - STATION DOES NOT REPORT WEATHER SUCH AS PRECIPITATION OR FOG.

+ - STATION NOT QUALITY CONTROLLED BY THE NATIONAL WEATHER SERVICE.
    USE DATA WITH CAUTION...ESPECIALLY DEWPOINT AND RELATIVE
    HUMIDITY OBSERVATIONS.

INZ001>003-010>013-019-020-272200-
NORTHWEST INDIANA

CITY           SKY/WX    TMP DP  RH WIND       PRES   REMARKS
GARY /AIRPORT/ MOSUNNY   75  43  31 NE8       30.09F
KNOX *+        MOSUNNY   73  36  25 N8G17     30.09S
LA PORTE +     SUNNY     72  42  33 NW3       30.11S
MICHIGAN CITY+ SUNNY     72  43  35 NE3       30.10F
MONTICELLO +   MOSUNNY   73  46  37 W5        30.10S
RENSSELAER +   PTSUNNY   73  36  25 SW7       30.10S
VALPARAISO     MOSUNNY   74  45  35 NE8       30.09F

$$

LMZ046-743>745-272200-
SOUTHERN LAKE MICHIGAN

STATION/POSITION TIME  TEMP    WIND        PRES    WAVE
                       AIR SEA DIR/SP/G            HT
                 (UTC) (F)     (DEG/KT/KT) (MB)    (FT)
BURNS HARBOR     2040   69      70/  9/ 10 1019.3F
MICHIGAN CITY    2040   66      40/  3/  3   N/A
5NW MICH CITY    2100   67 68  110/  4/  6   N/A     1

$$

INZ004-005-014>016-021>024-272200-
NORTH CENTRAL INDIANA

CITY           SKY/WX    TMP DP  RH WIND       PRES   REMARKS
ELKHART        SUNNY     72  43  35 NW8G18    30.09F
GOSHEN         MOSUNNY   73  42  32 NW13G20   30.08F
LOGANSPORT +   PTSUNNY   72  48  43 SW6       30.11S
PERU/GRISSOM   MOSUNNY   72  49  42 N5        30.09F
ROCHESTER +    MOSUNNY   73  45  35 NW8       30.10S
SOUTH BEND     SUNNY     71  44  37 NW10      30.10F
WARSAW +       MOSUNNY   72  43  35 NW13G18   30.09S

$$

INZ006>009-017-018-025>027-272200-
NORTHEAST INDIANA

CITY           SKY/WX    TMP DP  RH WIND       PRES   REMARKS
AUBURN +       MOSUNNY   72  43  35 W3G10     30.08F
FORT WAYNE     PTSUNNY   73  46  38 W13       30.10S
HUNTINGTON +   PTSUNNY   69  48  48 CALM      30.10S
KENDALLVILLE + MOSUNNY   74  44  35 W13       30.08F

$$

INZ028-029-035-036-043>045-051>053-272200-
WEST CENTRAL INDIANA

CITY           SKY/WX    TMP DP  RH WIND       PRES   REMARKS
CRAWFORDSVL +  SUNNY     71  47  42 CALM      30.12S
GREENCASTLE +  SUNNY     72  45  37 CALM      30.12F
LAFAYETTE      MOSUNNY   70  48  45 CALM      30.10S
TERRE HAUTE    SUNNY     73  45  36 E5        30.11F

$$

INZ030>032-037>040-046>048-054>057-064-065-272200-
CENTRAL INDIANA

CITY           SKY/WX    TMP DP  RH WIND       PRES   REMARKS
CP ATTERBURY + MOSUNNY   72  46  40 CALM      30.12F
COLUMBUS       MOSUNNY   72  41  33 N5        30.12F
FRANKFORT +    PTSUNNY   74  48  40 N3        30.13F
GREENWOOD *+   SUNNY     72  43  34 CALM      30.12F
INDIANAPOLIS   MOSUNNY   73  46  38 VRB6      30.11F
-EAGLE CREEK   SUNNY     73  46  38 N5        30.11F
KOKOMO +       MOSUNNY   72  49  44 NW8       30.12S
MARION +       MOSUNNY   72  45  37 W8        30.12S
MT COMFORT *+  PTSUNNY   72  46  40 N6        30.12F
SHELBYVILLE    CLOUDY    75  46  35 VRB3      30.11F
ZIONSVILLE +   SUNNY     71  46  40 N5        30.12F

$$

INZ033-034-041-042-049-050-058-059-272200-
EAST CENTRAL INDIANA

CITY           SKY/WX    TMP DP  RH WIND       PRES   REMARKS
MUNCIE         PTSUNNY   74  44  34 CALM      30.11F
RICHMOND +     MOSUNNY   66  45  45 W7        30.13S

$$

INZ060-061-067>069-081>083-085>088-272200-
SOUTHWEST INDIANA

CITY           SKY/WX    TMP DP  RH WIND       PRES   REMARKS
EVANSVILLE     MOSUNNY   79  49  34 MISG      30.10F
HUNTINGBURG *+ SUNNY     76  52  43 CALM      30.11F
WASHINGTON +   SUNNY     75  42  30 W3        30.11F

$$

INZ062-063-066-070>080-084-089>092-272200-
SOUTH CENTRAL AND SOUTHEAST INDIANA

CITY           SKY/WX    TMP DP  RH WIND       PRES   REMARKS
BEDFORD +      MOSUNNY   75  43  31 W5        30.11F
BLOOMINGTON    SUNNY     75  44  33 NW3       30.11F
MADISON *+     MOSUNNY   75  39  27 SW3       30.14F
NORTH VERNON + MOSUNNY   72  46  40 CALM      30.13F
SEYMOUR +      SUNNY     79  50  36 W9        30.11F

$$




USA.gov is the U.S. government's official web portal to all federal, state and local government web resources and services.